SHT9K EGPH-EGLL

Flight info

Callsign SHT9K
Flight time N/A
Altitude 33000
Route GOSAM P600 FENIK L612 NAVSO DCT AKOMU DCT VAMEB DCT NUGRA
Aircraft A320/M-SDE3FGHIRWY/LB1

Departure

Time 2026-05-06 16:56
Airport Edinburgh Airport (EGPH)

Arrival

Time N/A
Airport London Heathrow Airport (EGLL)
Time Latitude Longitude Altitude Speed Heading
2026-05-06 16:36 55.94906 -3.36496 114 ft 0 kts 148°
2026-05-06 16:42 55.94907 -3.36497 116 ft 2 kts 148°
2026-05-06 16:43 55.94928 -3.36520 113 ft 3 kts 149°
2026-05-06 16:43 55.94948 -3.36537 112 ft 4 kts 179°
2026-05-06 16:43 55.94973 -3.36517 112 ft 4 kts 235°
2026-05-06 16:43 55.94976 -3.36508 112 ft 0 kts 238°
2026-05-06 16:45 55.94974 -3.36516 112 ft 2 kts 238°
2026-05-06 16:46 55.94961 -3.36552 112 ft 5 kts 238°
2026-05-06 16:46 55.94940 -3.36615 113 ft 7 kts 238°
2026-05-06 16:46 55.94910 -3.36701 116 ft 9 kts 238°
2026-05-06 16:46 55.94895 -3.36787 115 ft 7 kts 284°
2026-05-06 16:47 55.94928 -3.36870 116 ft 9 kts 281°
2026-05-06 16:47 55.94897 -3.36980 114 ft 11 kts 238°
2026-05-06 16:47 55.94855 -3.37106 115 ft 13 kts 239°
2026-05-06 16:47 55.94805 -3.37255 114 ft 15 kts 239°
2026-05-06 16:48 55.94752 -3.37408 115 ft 14 kts 238°
2026-05-06 16:48 55.94700 -3.37562 114 ft 15 kts 239°
2026-05-06 16:48 55.94642 -3.37735 114 ft 17 kts 238°
2026-05-06 16:48 55.94577 -3.37924 116 ft 18 kts 238°
2026-05-06 16:49 55.94509 -3.38126 115 ft 20 kts 239°
2026-05-06 16:49 55.94435 -3.38345 113 ft 21 kts 239°
2026-05-06 16:49 55.94357 -3.38573 113 ft 21 kts 239°
2026-05-06 16:49 55.94292 -3.38762 112 ft 15 kts 239°
2026-05-06 16:50 55.94299 -3.38878 113 ft 10 kts 320°
2026-05-06 16:50 55.94323 -3.38906 116 ft 0 kts 328°
2026-05-06 16:53 55.94336 -3.38921 112 ft 5 kts 328°
2026-05-06 16:53 55.94380 -3.38969 114 ft 10 kts 328°
2026-05-06 16:54 55.94424 -3.38943 113 ft 6 kts 57°
2026-05-06 16:54 55.94425 -3.38942 113 ft 0 kts 57°
2026-05-06 16:54 55.94425 -3.38941 113 ft 0 kts 57°
2026-05-06 16:55 55.94463 -3.38832 114 ft 37 kts 58°
2026-05-06 16:55 55.94715 -3.38088 113 ft 99 kts 59°
2026-05-06 16:55 55.95151 -3.36799 139 ft 139 kts 60°
2026-05-06 16:55 55.95628 -3.35400 723 ft 130 kts 59°
2026-05-06 16:56 55.96170 -3.34032 1093 ft 140 kts 45°
2026-05-06 16:56 55.96908 -3.32853 1418 ft 151 kts 45°
2026-05-06 16:56 55.97731 -3.31523 1544 ft 176 kts 44°
2026-05-06 16:56 55.98711 -3.29935 1768 ft 201 kts 44°
2026-05-06 16:57 55.99899 -3.28355 2040 ft 227 kts 21°
2026-05-06 16:57 56.01536 -3.28218 2419 ft 252 kts 341°
2026-05-06 16:57 56.02972 -3.30042 3053 ft 261 kts 303°
2026-05-06 16:57 56.03532 -3.33082 3926 ft 261 kts 268°
2026-05-06 16:58 56.03309 -3.36295 4879 ft 261 kts 256°
2026-05-06 16:58 56.02836 -3.39433 5846 ft 261 kts 251°
2026-05-06 16:58 56.02268 -3.42536 6766 ft 264 kts 251°
2026-05-06 16:58 56.01694 -3.45675 7620 ft 267 kts 251°
2026-05-06 16:59 56.01145 -3.48864 8470 ft 270 kts 253°
2026-05-06 16:59 56.00624 -3.52112 9312 ft 273 kts 254°
2026-05-06 16:59 56.00082 -3.55391 10120 ft 276 kts 247°
2026-05-06 16:59 55.99001 -3.58308 10390 ft 299 kts 224°
2026-05-06 17:00 55.97172 -3.60316 10583 ft 323 kts 200°
2026-05-06 17:00 55.94907 -3.60831 11056 ft 336 kts 178°
2026-05-06 17:00 55.92561 -3.60389 11714 ft 341 kts 175°
2026-05-06 17:00 55.90193 -3.59834 12396 ft 345 kts 174°
2026-05-06 17:01 55.87797 -3.59251 13081 ft 349 kts 174°
2026-05-06 17:01 55.85375 -3.58645 13778 ft 353 kts 174°
2026-05-06 17:01 55.82934 -3.58030 14356 ft 356 kts 176°
2026-05-06 17:01 55.80469 -3.58135 14929 ft 355 kts 192°
2026-05-06 17:02 55.78861 -3.58674 15314 ft 356 kts 194°
2026-05-06 17:02 55.76423 -3.59557 15910 ft 359 kts 194°
2026-05-06 17:02 55.73959 -3.60449 16485 ft 362 kts 194°
2026-05-06 17:02 55.71474 -3.61341 17076 ft 366 kts 194°
2026-05-06 17:03 55.68964 -3.62239 17667 ft 370 kts 194°
2026-05-06 17:03 55.66428 -3.63138 18274 ft 373 kts 194°
2026-05-06 17:03 55.63870 -3.64037 18810 ft 377 kts 194°
2026-05-06 17:03 55.61282 -3.64939 19347 ft 380 kts 194°
2026-05-06 17:04 55.58668 -3.65844 19887 ft 384 kts 194°
2026-05-06 17:04 55.56035 -3.66768 20421 ft 388 kts 195°
2026-05-06 17:04 55.53427 -3.67797 20943 ft 390 kts 197°
2026-05-06 17:04 55.50778 -3.68939 21443 ft 394 kts 198°
2026-05-06 17:05 55.48108 -3.70141 21927 ft 397 kts 198°
2026-05-06 17:05 55.45422 -3.71361 22373 ft 401 kts 198°
2026-05-06 17:05 55.42701 -3.72582 22811 ft 405 kts 198°
2026-05-06 17:05 55.39954 -3.73793 23278 ft 409 kts 197°
2026-05-06 17:06 55.37176 -3.74997 23715 ft 412 kts 197°
2026-05-06 17:06 55.34378 -3.76194 24078 ft 415 kts 197°
2026-05-06 17:06 55.31560 -3.77392 24453 ft 418 kts 197°
2026-05-06 17:06 55.28720 -3.78600 24821 ft 421 kts 197°
2026-05-06 17:07 55.25820 -3.79524 25176 ft 427 kts 188°
2026-05-06 17:07 55.22859 -3.79575 25507 ft 435 kts 178°
2026-05-06 17:07 55.19857 -3.78664 25837 ft 441 kts 167°
2026-05-06 17:07 55.16963 -3.76793 26192 ft 447 kts 156°
2026-05-06 17:08 55.14169 -3.74366 26539 ft 450 kts 155°
2026-05-06 17:08 55.11352 -3.71925 26888 ft 452 kts 155°
2026-05-06 17:08 55.08521 -3.69494 27227 ft 455 kts 156°
2026-05-06 17:08 55.05670 -3.67055 27557 ft 457 kts 156°
2026-05-06 17:09 55.02801 -3.64611 27890 ft 460 kts 156°
2026-05-06 17:09 54.99915 -3.62157 28215 ft 463 kts 156°
2026-05-06 17:09 54.97014 -3.59691 28534 ft 465 kts 156°
2026-05-06 17:09 54.94082 -3.57206 28838 ft 468 kts 156°
2026-05-06 17:10 54.91146 -3.54719 29173 ft 469 kts 155°
2026-05-06 17:10 54.88207 -3.52228 29622 ft 469 kts 155°
2026-05-06 17:10 54.85318 -3.49785 30074 ft 468 kts 155°
2026-05-06 17:10 54.82390 -3.47309 30455 ft 468 kts 155°
2026-05-06 17:11 54.79463 -3.44839 30821 ft 468 kts 155°
2026-05-06 17:11 54.76532 -3.42368 31174 ft 469 kts 155°
2026-05-06 17:11 54.73598 -3.39896 31549 ft 469 kts 155°
2026-05-06 17:11 54.70661 -3.37423 31918 ft 470 kts 155°
2026-05-06 17:12 54.67722 -3.34952 32304 ft 469 kts 155°
2026-05-06 17:12 54.64783 -3.32491 32721 ft 469 kts 155°
2026-05-06 17:12 54.61847 -3.30038 32979 ft 470 kts 154°
2026-05-06 17:13 54.55917 -3.25099 33022 ft 475 kts 154°
2026-05-06 17:13 54.49948 -3.20143 33028 ft 475 kts 155°
2026-05-06 17:14 54.44005 -3.15218 33021 ft 472 kts 155°
2026-05-06 17:14 54.38135 -3.10372 33029 ft 470 kts 155°
2026-05-06 17:15 54.32231 -3.05520 33031 ft 470 kts 155°
2026-05-06 17:15 54.26333 -3.00681 33032 ft 470 kts 155°
2026-05-06 17:16 54.20425 -2.95849 33019 ft 470 kts 155°
2026-05-06 17:16 54.14514 -2.91092 33038 ft 469 kts 156°
2026-05-06 17:17 54.08522 -2.86698 33038 ft 468 kts 158°
2026-05-06 17:17 54.02493 -2.82471 33042 ft 468 kts 158°
2026-05-06 17:18 53.96353 -2.78837 33039 ft 467 kts 163°
2026-05-06 17:18 53.90192 -2.75564 33033 ft 466 kts 163°
2026-05-06 17:19 53.84003 -2.72263 33031 ft 466 kts 163°
2026-05-06 17:19 53.77818 -2.69004 33030 ft 465 kts 163°
2026-05-06 17:20 53.71633 -2.65767 33035 ft 465 kts 163°
2026-05-06 17:20 53.65443 -2.62527 33036 ft 464 kts 163°
2026-05-06 17:21 53.59280 -2.59313 33039 ft 463 kts 163°
2026-05-06 17:21 53.53123 -2.56113 33048 ft 462 kts 164°
2026-05-06 17:22 53.46986 -2.52929 33042 ft 461 kts 164°
2026-05-06 17:22 53.40893 -2.49777 33048 ft 460 kts 164°
2026-05-06 17:23 53.34772 -2.46625 33044 ft 460 kts 164°
2026-05-06 17:23 53.28641 -2.43478 33044 ft 460 kts 164°
2026-05-06 17:24 53.22523 -2.40342 33031 ft 460 kts 164°
2026-05-06 17:24 53.16406 -2.37213 33040 ft 459 kts 164°